Tracking 20383 objects as of 23-Feb-2020
HD Live streaming from Space Station
objects crossing your sky now
Track the group of recently launched Starlink satellites

OPS 9333 (IDSCS 18)

Track OPS 9333 (IDSCS 18) now!
OPS 9333 (IDSCS 18) is classified as:


NORAD ID: 2864
Int'l Code: 1967-066C
Perigee: 33,062.4 km
Apogee: 33,579.5 km
Inclination: 3.0 °
Period: 1,311.6 minutes
Semi major axis: 39691 km
RCS: 0.1584 m2 (medium)
Launch date: July 1, 1967
Source: United States (US)
Launch site: AIR FORCE EASTERN TEST RANGE (AFETR)
aabbcc
Your satellite tracking list
Your tracking list is empty




NASA's NSSDC Master Catalog

Two Line Element Set (TLE):
1  2864U 67066C   20053.64399640 -.00000120  00000-0  00000+0 0  9999
2  2864   2.9598 274.4083 0065142  13.5515 195.1243  1.09786738106305
Source of the keplerian elements: AFSPC